Location: Asheville, NC
(35.6000°N, 82.5500°W)
Time: 17:06:25
(UTC-04:00)

AAUSAT CUBESAT 2 - Pass Details

Date: 11 March 2018
Orbit: 576 x 592 km, 97.5° (Epoch: 17 June)

Event Time Altitude Azimuth Distance (km) Brightness Sun altitude
Rises 21:28:05 0° 203° (SSW) 2,778 ? -23.8°
Reaches altitude 10° 21:30:49 10° 223° (SW) 1,887 ? -24.3°
Maximum altitude 21:33:36 18° 266° (W) 1,464 ? -24.8°
Drops below altitude 10° 21:36:24 10° 309° (NW) 1,903 ? -25.4°
Sets 21:39:11 0° 329° (NNW) 2,812 ? -25.9°
